Other Public Products
Issued by NWS Grand Forks, ND

Home | Current Version | Previous Version | Text Only | Print | Product List | Glossary Off
Versions: 1 2 3 4 5 6 7 8 9 10 11 12 13 14 15 16 17 18 19 20 21 22 23 24 25 26 27 28 29 30 31 32 33 34 35 36 37 38 39 40 41 42 43 44 45 46 47 48 49 50

922
FPUS83 KFGF 221831
OPUFGF
PRAIRIE TO PINES WEATHER ROUNDUP
NATIONAL WEATHER SERVICE EASTERN NORTH DAKOTA/GRAND FORKS ND
1200 PM CST SUN JAN 22 2017

 **SATELLITE DATA USED TO AUGMENT SKY COVER AT AUTOMATED STATIONS**
 *****  WEATHER ACROSS EASTERN NORTH DAKOTA  *****

CITY           SKY/WX    TMP DP  RH WIND       PRES   REMARKS
GRAND FORKS    CLOUDY    35  29  78 W8        29.74S
6HR MIN TEMP:  34; 6HR MAX TEMP:  35;

GRAND FORKS AF CLOUDY    32  28  86 W8        29.73F WCI  25
GRAND CITY NWS NOT AVBL
BUXTON           N/A     33  33  99 W7          N/A
DEVILS LAKE    CLOUDY    30  27  88 NW13      29.73R WCI  20
6HR MIN TEMP:  27; 6HR MAX TEMP:  30;

FARGO          CLOUDY    35  32  88 W7        29.75S FOG
6HR MIN TEMP:  35; 6HR MAX TEMP:  36;

WAHPETON ARPT  CLOUDY    32  32 100 W10       29.76F WCI  24
$$

 *****  WEATHER ACROSS CENTRAL AND WESTERN NORTH DAKOTA  *****

CITY           SKY/WX    TMP DP  RH WIND       PRES   REMARKS
JAMESTOWN      CLOUDY    32  29  88 NW14      29.73F WCI  22
6HR MIN TEMP:  29; 6HR MAX TEMP:  32;

BISMARCK       CLOUDY    33  29  85 NW10      29.81R WCI  25
6HR MIN TEMP:  27; 6HR MAX TEMP:  33; 6HR PCP: TRACE;

MINOT          CLOUDY    33  30  88 W8        29.76R
6HR MIN TEMP:  30; 6HR MAX TEMP:  33;

MINOT AFB      CLOUDY    32  28  86 W10       29.75R WCI  24
6HR MIN TEMP:  29; 6HR MAX TEMP:  31;

GARRISON         N/A     31  28  89 W12       29.77S WCI  22
6HR MIN TEMP:  29; 6HR MAX TEMP:  31;

WILLISTON      CLOUDY    30  27  88 W15       29.81S WCI  19
6HR MIN TEMP:  29; 6HR MAX TEMP:  31;

DICKINSON      LGT SNOW  25  23  92 NW20      29.79S FOG     WCI  11
6HR MIN TEMP:  20; 6HR MAX TEMP:  25; 6HR PCP: TRACE;

HETTINGER      CLOUDY    28  24  85 NW17      29.83S WCI  16
6HR MIN TEMP:  12; 6HR MAX TEMP:  28;

$$

 *****  OTHER OBSERVATIONS NORTHEAST NORTH DAKOTA  *****

CITY           SKY/WX    TMP DP  RH WIND       PRES   REMARKS
WALHALLA       NOT AVBL
LANGDON        NOT AVBL
CAVALIER       MIX PCPN  34  32  93 W7        29.72F
GRAFTON        CLOUDY    34  34 100 W6        29.75S FOG
CANDO          NOT AVBL
FORT TOTTEN      N/A     29  29 100 NW7       29.95S WCI  22
ROLLA            N/A    N/A N/A N/A MISG        N/A
RUGBY            N/A     28  27  93 NW14      29.73S WCI  17
 ***** THE ABOVE OBSERVATIONS ARE NON NWS ARE NOT QUALITY
        CONTROLLED AND MAY MIS-REPORT RAIN FOR SNOW...
$$

 *****  OTHER OBSERVATIONS SOUTHEAST NORTH DAKOTA *****

CITY           SKY/WX    TMP DP  RH WIND       PRES   REMARKS
COOPERSTOWN    CLOUDY    30  30 100 NW16      29.73F FOG     WCI  19
VALLEY CITY    MOCLDY    32  32 100 NW12      29.75F WCI  23
OAKES          NOT AVBL
GWINNER        CLOUDY    34  32  93 W10       29.76F
SHEYENNE NWR     N/A     33  29  86 W7        29.95S
BUFFALO          N/A     32  30  90 SW6         N/A
WYNDMERE         N/A     34  30  86 W9          N/A
 ***** THE ABOVE OBSERVATIONS ARE NON NWS ARE NOT QUALITY
       CONTROLLED AND MAY MIS-REPORT RAIN FOR SNOW...
$$

  *****  WEATHER ACROSS NORTHERN MINNESOTA  *****

CITY           SKY/WX    TMP DP  RH WIND       PRES   REMARKS
FLAG ISLAND    CLOUDY    34  34 100 CALM      29.70S
WARROAD        CLOUDY    36  30  80 CALM      29.71F FOG
ROSEAU         CLOUDY    36  30  80 CALM      29.71F
HALLOCK        FOG       34  34 100 SW3       29.72S VSB<1/4
THF RVR FALLS  FOG       34  33  96 W6        29.73S VSB 1/4
6HR MIN TEMP:  32; 6HR MAX TEMP:  35;

HALSTAD          N/A     33  32  98 W6          N/A
FOSSTON        FOG       34  32  93 W6        29.73R VSB<1/4
BAUDETTE       CLOUDY    36  33  89 CALM      29.70S
6HR MIN TEMP:  33; 6HR MAX TEMP:  36;

WASKISH        FOG       36  34  93 W5        29.71S VSB 1
CROOKSTON      CLOUDY    32  32 100 W7        29.75S FOG
$$
  *****  WEATHER ACROSS CENTRAL AND WEST MINNESOTA  *****

CITY           SKY/WX    TMP DP  RH WIND       PRES   REMARKS
BEMIDJI        CLOUDY    33  33 100 NW3       29.70F
PARK RAPIDS    CLOUDY    36  32  85 W5        29.70S
6HR MIN TEMP:  33; 6HR MAX TEMP:  36;

WADENA         CLOUDY    34  34 100 W3        29.71F FOG
DETROIT LAKES  FOG       34  34 100 W7        29.73F VSB 1/4
MOORHEAD       CLOUDY    32  30  93 W7        29.76S FOG
FERGUS FALLS   FOG       32  32 100 W9        29.79S VSB<1/4 WCI  24
ELBOW LAKE     SNOW      31  31 100 NW10      29.75F VSB 1/4 WCI  23
6HR MIN TEMP:  32; 6HR MAX TEMP:  32;

MORRIS MN      CLOUDY    34  32  93 NW12      29.75S FOG
STAPLES        CLOUDY    36  36 100 W3        29.72S
WHEATON        CLOUDY    36  36 100 W9        29.78F FOG
$$
  *****  WEATHER ELSEWHERE ACROSS MINNESOTA  *****

CITY           SKY/WX    TMP DP  RH WIND       PRES   REMARKS
DULUTH         CLOUDY    36  35  96 NW5       29.66F
6HR MIN TEMP:  34; 6HR MAX TEMP:  36; 6HR PCP: TRACE;

INTRNTL FALLS  CLOUDY    37  35  92 CALM      29.69S
6HR MIN TEMP:  33; 6HR MAX TEMP:  37;

ELY            CLOUDY    34  34 100 CALM      29.67S FOG
CLOQUET        CLOUDY    36  34  93 W7        29.67F FOG
BRAINERD       CLOUDY    35  35 100 NW3       29.71F FOG
6HR MIN TEMP:  33; 6HR MAX TEMP:  35;

HIBBING        CLOUDY    34  34 100 N3        29.68S
6HR MIN TEMP:  32; 6HR MAX TEMP:  34;

ALEXANDRIA     FOG       33  33 100 W9        29.73F VSB 1/2
6HR MIN TEMP:  33; 6HR MAX TEMP:  34;

SAINT CLOUD    CLOUDY    37  36  96 NW6       29.71F
6HR MIN TEMP:  33; 6HR MAX TEMP:  37;

MINNEAPOLIS    CLOUDY    39  34  82 NW7       29.71F
6HR MIN TEMP:  35; 6HR MAX TEMP:  39;

$$

  *****  WEATHER ACROSS SOUTH DAKOTA  *****

CITY           SKY/WX    TMP DP  RH WIND       PRES   REMARKS
SIOUX FALLS    CLOUDY    33  32  96 NW13      29.79R WCI  24
6HR MIN TEMP:  32; 6HR MAX TEMP:  33; 6HR PCP: TRACE;

BROOKINGS      CLOUDY    29  28  96 NW14      29.76F FOG     WCI  18
WATERTOWN      FOG       28  27  96 W9        29.76S VSB 3/4 WCI  19
6HR MIN TEMP:  28; 6HR MAX TEMP:  32;

HURON          CLOUDY    27  26  96 NW14      29.83S WCI  16
6HR MIN TEMP:  20; 6HR MAX TEMP:  26;

SISSETON         N/A     32  31  96 N12       29.76F WCI  23
ABERDEEN       CLOUDY    29  24  82 W10       29.81S WCI  20
6HR MIN TEMP:  27; 6HR MAX TEMP:  30;

MITCHELL       CLOUDY    27  26  96 NW14      29.85R FOG     WCI  16
PIERRE         FAIR      28  22  78 W12       29.85S WCI  18
6HR MIN TEMP:  18; 6HR MAX TEMP:  28;

MOBRIDGE       CLOUDY    25  20  81 W10       29.80S WCI  15
RAPID CITY     FAIR      39  25  57 N5        29.85S
6HR MIN TEMP:  24; 6HR MAX TEMP:  39;

$$

  *****  SOME WEATHER IN NEARBY STATES *****

CITY           SKY/WX    TMP DP  RH WIND       PRES   REMARKS
GLASGOW MT     CLOUDY    30  24  78 W13       29.84S WCI  20
6HR MIN TEMP:  27; 6HR MAX TEMP:  30;

GREAT FALLS MT FAIR      29  22  75 E7        29.81S WCI  22
6HR MIN TEMP:  20; 6HR MAX TEMP:  29;

CHEYENNE WY    FAIR      35  10  35 NW16G28   29.93R
6HR MIN TEMP:  26; 6HR MAX TEMP:  35;

SCOTTSBLUFF NE FAIR      40  23  50 NW15      29.92S
6HR MIN TEMP:  22; 6HR MAX TEMP:  40;

OMAHA NE       CLOUDY    36  30  79 NW13      29.79F
6HR MIN TEMP:  32; 6HR MAX TEMP:  36;

DES MOINES IA  CLOUDY    37  34  89 NW10      29.72F FOG
6HR MIN TEMP:  32; 6HR MAX TEMP:  37;

DAVENPORT IA   CLOUDY    34  33  96 N8        29.66F
6HR MIN TEMP:  28; 6HR MAX TEMP:  34;

CHICAGO IL     CLOUDY    45  39  79 CALM      29.62F
6HR MIN TEMP:  40; 6HR MAX TEMP:  45;

EAU CLAIRE WI  CLOUDY    36  34  92 NW5       29.67S
6HR MIN TEMP:  33; 6HR MAX TEMP:  37;

LA CROSSE WI   CLOUDY    40  36  86 N3        29.68S FOG
6HR MIN TEMP:  37; 6HR MAX TEMP:  40;

$$

  *****  SOME NATIONAL WEATHER *****

CITY           SKY/WX    TMP DP  RH WIND       PRES   REMARKS
LA GUARDIA NY  CLOUDY    45  41  86 NE12      29.71S FOG          C1F1C2F2C3F3C4F4C5F5C6F6C7F7C8F8C9F9CaFaCbFbCcFcCdFdCe!



USA.gov is the U.S. government's official web portal to all federal, state and local government web resources and services.